Weather History for Ravenna, OH

Change the Weather History Date:

Tuesday, February 18, 2014

  Actual Average (KCAK) Record (KCAK)
Temperature  
Mean Temperature 32 °F 30 °F  
Max Temperature 40 °F 37 °F 60 °F (1981)
Min Temperature 25 °F 22 °F -8 °F (1936)
Degree Days  
Heating Degree Days 32 35  
Month to date heating degree days 667  
Since 1 July heating degree days 4203  
Cooling Degree Days 0 0  
Month to date cooling degree days 0  
Year to date cooling degree days 0  
Moisture  
Dew Point 25 °F    
Average Humidity 76    
Maximum Humidity 100    
Minimum Humidity 46    
Precipitation  
Precipitation 0.09 in 0.08 in 0.76 in (1976)
Month to date precipitation 1.46  
Year to date precipitation 4.07  
Snow  
Snow 0.00 in 0.40 in - ()
Month to date snowfall 6.6  
Since 1 July snowfall 32.6  
Snow Depth -    
Sea Level Pressure  
Sea Level Pressure 29.89 in    
Wind  
Wind Speed 11 mph (SW)    
Max Wind Speed 25 mph    
Max Gust Speed 38 mph    
Visibility 7 miles    
Events Rain , Snow    
T = Trace of Precipitation, MM = Missing Value Source: NWS Daily Summary

Daily Weather History Graph

Daily Weather History Graph

Search for Another Location

Airport:

Trip Planner

Search our weather history database for the weather conditions in past years. The results will help you decide how hot, cold, wet, or windy it might be!

Date:

Astronomy

Feb. 18, 2014 Rise Set
Actual Time 7:15 AM EST 6:02 PM EST
Civil Twilight 6:47 AM EST 6:30 PM EST
Nautical Twilight 6:15 AM EST 7:03 PM EST
Astronomical Twilight 5:43 AM EST 7:35 PM EST
Moon 9:57 PM EST (2/18) 8:44 AM EST (2/18)
Length of Visible Light 11h 43m
Length of Day
10h 47m
Waning Gibbous, 87% of the Moon is Illuminated
Feb 18
Waning Gibbous
Feb 22
Last Quarter
Mar 1
New
Mar 8
First Quarter
Mar 16
Full

Hourly Weather History & Observations

Time (EST) Temp. Windchill Dew Point Humidity Pressure Visibility Wind Dir Wind Speed Gust Speed Precip Events Conditions
12:13 AM - - - N/A% 29.68 in 3.0 mi South 5.8 mph - N/A Rain Light Rain
12:32 AM 31.8 °F 25.4 °F 32.0 °F 100% 29.68 in 4.0 mi South 6.9 mph - N/A Rain Light Freezing Rain
12:53 AM 32.5 °F 24.2 °F 32.7 °F 100% 29.68 in 1.0 mi WSW 10.4 mph 20.7 mph N/A Rain Light Rain
1:13 AM 32.9 °F 23.2 °F 33.1 °F 100% 29.69 in 3.0 mi SW 13.8 mph 26.5 mph N/A Snow Light Snow
1:32 AM 32.2 °F 21.4 °F 32.4 °F 100% 29.70 in 3.0 mi WSW 16.1 mph 25.3 mph N/A Snow Light Snow
1:53 AM 32.0 °F 20.1 °F 32.0 °F 100% 29.71 in 1.5 mi SW 19.6 mph 28.8 mph N/A Snow Light Snow
2:13 AM 31.8 °F 23.3 °F 32.0 °F 100% 29.71 in 1.0 mi SW 10.4 mph 20.7 mph N/A Snow Light Snow
2:32 AM 31.6 °F 20.7 °F 31.8 °F 100% 29.71 in 0.5 mi WSW 16.1 mph 26.5 mph N/A Snow Snow
2:53 AM 31.5 °F 22.9 °F 31.6 °F 100% 29.71 in 0.8 mi WSW 10.4 mph 19.6 mph N/A Snow Snow
3:13 AM 31.1 °F 22.4 °F 31.5 °F 100% 29.70 in 0.8 mi WSW 10.4 mph 16.1 mph N/A Snow Snow
3:32 AM 31.1 °F 21.9 °F 31.1 °F 100% 29.70 in 1.0 mi WSW 11.5 mph 16.1 mph N/A Snow Snow
3:53 AM 30.4 °F 18.4 °F 30.4 °F 100% 29.71 in 0.8 mi West 18.4 mph 25.3 mph N/A Snow Light Snow
4:13 AM 29.3 °F 17.0 °F 29.7 °F 100% 29.72 in 0.8 mi West 18.4 mph 28.8 mph N/A Snow Snow
4:33 AM 29.3 °F 18.6 °F 29.3 °F 100% 29.74 in 0.5 mi West 13.8 mph 21.9 mph N/A Snow Snow
4:53 AM 27.5 °F 14.2 °F 27.7 °F 100% 29.76 in 0.2 mi West 19.6 mph 33.4 mph N/A Snow Heavy Snow
5:13 AM 26.4 °F 11.2 °F 26.4 °F 100% 29.78 in 0.8 mi West 25.3 mph 38.0 mph N/A Snow Light Snow
5:32 AM 26.2 °F 11.5 °F 26.4 °F 100% 29.79 in 1.2 mi West 23.0 mph 31.1 mph N/A Snow Light Snow
5:53 AM 26.1 °F 12.3 °F 26.1 °F 100% 29.81 in 1.0 mi West 19.6 mph 29.9 mph N/A Snow Light Snow
6:13 AM 25.7 °F 12.7 °F 25.7 °F 100% 29.82 in 1.0 mi West 17.3 mph 29.9 mph N/A Snow Light Snow
6:32 AM 25.3 °F 12.2 °F 25.3 °F 100% 29.84 in 1.2 mi West 17.3 mph 26.5 mph N/A Snow Light Snow
6:53 AM 25.3 °F 12.2 °F 25.3 °F 100% 29.85 in 1.5 mi West 17.3 mph 26.5 mph N/A Snow Light Snow
7:13 AM 25.2 °F 12.4 °F 25.3 °F 100% 29.86 in 1.0 mi West 16.1 mph 26.5 mph N/A Snow Snow
7:32 AM 25.0 °F 11.7 °F 25.3 °F 100% 29.88 in 0.8 mi WSW 17.3 mph 24.2 mph N/A Snow Light Snow
7:53 AM 25.3 °F 11.0 °F 24.8 °F 98% 29.90 in 3.0 mi West 20.7 mph 28.8 mph N/A Snow Light Snow
8:13 AM 25.7 °F 14.0 °F 19.8 °F 78% 29.91 in 5.0 mi West 13.8 mph 24.2 mph N/A   Overcast
8:32 AM 25.7 °F 14.0 °F 19.6 °F 78% 29.92 in 4.0 mi West 13.8 mph 23.0 mph N/A Snow Light Snow
8:53 AM 25.3 °F 14.7 °F 20.7 °F 82% 29.93 in 1.5 mi West 11.5 mph 24.2 mph N/A Snow Light Snow
9:13 AM 25.5 °F 13.8 °F 21.0 °F 83% 29.95 in 2.0 mi West 13.8 mph 19.6 mph N/A Snow Light Snow
9:32 AM 25.7 °F 13.1 °F 20.5 °F 81% 29.96 in 7.0 mi WSW 16.1 mph 19.6 mph N/A Snow Light Snow
9:53 AM 26.2 °F 14.2 °F 20.3 °F 78% 29.98 in 4.0 mi West 15.0 mph 21.9 mph N/A Snow Light Snow
10:13 AM 26.6 °F 13.8 °F 19.8 °F 75% 29.98 in 7.0 mi WSW 17.3 mph 20.7 mph N/A   Overcast
10:33 AM 27.0 °F 14.3 °F 18.9 °F 72% 29.99 in 10.0 mi WSW 17.3 mph 25.3 mph N/A   Overcast
10:52 AM 27.1 °F 16.4 °F 18.3 °F 69% 30.00 in 10.0 mi WSW 12.7 mph 25.3 mph N/A   Overcast
11:13 AM 27.3 °F 16.1 °F 18.1 °F 68% 30.01 in 10.0 mi WSW 13.8 mph 24.2 mph N/A   Overcast
11:32 AM 27.3 °F 17.1 °F 19.0 °F 71% 30.03 in 10.0 mi West 11.5 mph 20.7 mph N/A   Overcast
11:53 AM 28.0 °F 17.0 °F 19.2 °F 70% 30.03 in 10.0 mi West 13.8 mph 20.7 mph N/A   Overcast
12:13 PM 30.0 °F 21.7 °F 19.8 °F 66% 30.03 in 10.0 mi WSW 9.2 mph 16.1 mph N/A   Overcast
12:32 PM 30.6 °F 20.7 °F 19.2 °F 63% 30.03 in 10.0 mi WSW 12.7 mph 18.4 mph 0.03 in   Overcast
12:53 PM 30.4 °F 20.0 °F 19.0 °F 63% 30.02 in 10.0 mi WSW 13.8 mph 18.4 mph 0.05 in   Mostly Cloudy
1:13 PM 32.0 °F 24.2 °F 19.9 °F 61% 30.02 in 10.0 mi SW 9.2 mph 16.1 mph N/A   Scattered Clouds
1:32 PM 31.1 °F 20.1 °F 20.3 °F 64% 30.03 in 10.0 mi WSW 16.1 mph 21.9 mph N/A   Mostly Cloudy
1:53 PM 32.7 °F 24.5 °F 22.3 °F 65% 30.02 in 10.0 mi SW 10.4 mph 19.6 mph N/A   Mostly Cloudy
2:13 PM 32.0 °F 23.0 °F 22.8 °F 69% 30.01 in 10.0 mi WSW 11.5 mph 18.4 mph N/A   Mostly Cloudy
2:32 PM 33.8 °F 25.3 °F 23.5 °F 66% 30.01 in 10.0 mi WSW 11.5 mph 17.3 mph 0.02 in   Mostly Cloudy
2:53 PM 34.7 °F 25.1 °F 24.6 °F 67% 30.01 in 10.0 mi WSW 15.0 mph 18.4 mph 0.03 in   Scattered Clouds
3:13 PM 35.8 °F 28.3 °F 25.3 °F 66% 30.00 in 10.0 mi SW 10.4 mph 17.3 mph N/A   Scattered Clouds
3:32 PM 36.7 °F 34.1 °F 25.9 °F 65% 30.00 in 10.0 mi SW 3.5 mph - 0.01 in   Clear
3:53 PM 37.4 °F 32.1 °F 26.4 °F 65% 29.99 in 10.0 mi SW 6.9 mph - 0.01 in   Clear
4:13 PM 37.6 °F 35.1 °F 27.1 °F 66% 29.99 in 10.0 mi South 3.5 mph - N/A   Clear
4:33 PM 38.5 °F 33.4 °F 27.3 °F 64% 29.98 in 10.0 mi SSW 6.9 mph - N/A   Clear
4:53 PM 38.7 °F 34.3 °F 27.0 °F 63% 29.97 in 10.0 mi South 5.8 mph - N/A   Clear
5:13 PM 38.1 °F 33.7 °F 26.4 °F 63% 29.97 in 10.0 mi South 5.8 mph - N/A   Clear
5:32 PM 37.8 °F - 26.1 °F 63% 29.96 in 10.0 mi Calm Calm - N/A   Clear
5:53 PM 37.0 °F - 26.6 °F 66% 29.97 in 10.0 mi Calm Calm - N/A   Clear
6:13 PM 36.9 °F 34.3 °F 27.0 °F 67% 29.97 in 10.0 mi South 3.5 mph - N/A   Clear
6:32 PM 36.7 °F - 26.6 °F 67% 29.96 in 10.0 mi Calm Calm - N/A   Clear
6:53 PM 36.0 °F - 26.4 °F 68% 29.95 in 10.0 mi Calm Calm - N/A   Clear
7:13 PM 36.0 °F 33.3 °F 25.7 °F 66% 29.94 in 10.0 mi SE 3.5 mph - N/A   Clear
7:32 PM 34.7 °F 30.6 °F 25.3 °F 69% 29.92 in 10.0 mi SE 4.6 mph - N/A   Clear
7:53 PM 34.5 °F 31.6 °F 25.0 °F 68% 29.91 in 10.0 mi SE 3.5 mph - N/A   Clear
8:13 PM 34.2 °F 30.0 °F 24.8 °F 69% 29.91 in 10.0 mi SSE 4.6 mph - N/A   Clear
8:32 PM 34.9 °F 30.8 °F 23.9 °F 64% 29.91 in 10.0 mi SSE 4.6 mph - N/A   Clear
8:53 PM 36.5 °F 33.9 °F 23.4 °F 59% 29.91 in 10.0 mi South 3.5 mph - N/A   Clear
9:13 PM 37.4 °F 32.8 °F 23.0 °F 56% 29.90 in 10.0 mi South 5.8 mph - N/A   Clear
9:32 PM 37.4 °F 33.8 °F 22.6 °F 55% 29.89 in 10.0 mi SSE 4.6 mph - N/A   Clear
9:53 PM 37.9 °F 33.5 °F 22.5 °F 54% 29.86 in 10.0 mi SSE 5.8 mph - N/A   Clear
10:13 PM 37.6 °F - 22.1 °F 54% 29.85 in 10.0 mi Calm Calm - N/A   Clear
10:32 PM 38.3 °F 33.9 °F 21.9 °F 52% 29.84 in 10.0 mi SSE 5.8 mph - N/A   Clear
10:53 PM 39.0 °F 34.8 °F 21.6 °F 50% 29.83 in 10.0 mi SSE 5.8 mph - N/A   Clear
11:13 PM 39.4 °F 36.1 °F 21.2 °F 48% 29.83 in 10.0 mi South 4.6 mph - N/A   Clear
11:32 PM 40.1 °F 36.1 °F 21.0 °F 47% 29.82 in 10.0 mi South 5.8 mph - N/A   Clear
11:53 PM 40.5 °F 35.1 °F 21.2 °F 46% 29.80 in 10.0 mi South 8.1 mph - N/A   Clear